This is the latest recevied weather packets stored in our database for station/object N0ZO-13. If no packets are shown the sender has not sent any weather packets the latest 10 day(s).
| Time | Temp. | Humidity | Pressure | Rain* | Wind** | Luminosity | Snow |
|---|---|---|---|---|---|---|---|
| 1777433786 | 17.78° C | 99% | 1011.7 hPa | 0.76 mm | - | 0 W/m² | - |
| 1777427787 | 18.33° C | 99% | 1012.7 hPa | 1.02 mm | - | 0 W/m² | - |
| 1777425390 | 18.33° C | 99% | 1012.2 hPa | 6.1 mm | - | 0 W/m² | - |
| 1777424782 | 18.33° C | 99% | 1012.5 hPa | 9.91 mm | - | 0 W/m² | - |
| 1777419385 | 18.33° C | 99% | 1011.4 hPa | 1.52 mm | - | 0 W/m² | - |
| 1777416987 | 18.33° C | 99% | 1010.3 hPa | 0.25 mm | - | 0 W/m² | - |
| 1777411586 | 17.78° C | 99% | 1011.6 hPa | 1.52 mm | - | 0 W/m² | - |
| 1777406777 | 17.22° C | 99% | 1012.3 hPa | 3.3 mm | - | 0 W/m² | - |
| 1777404984 | 17.22° C | 99% | 1013.8 hPa | 4.06 mm | - | 0 W/m² | - |
| 1777403787 | 17.22° C | 99% | 1013.4 hPa | 4.32 mm | - | 0 W/m² | - |
| 1777401984 | 17.22° C | 99% | 1014.8 hPa | 2.79 mm | - | 0 W/m² | - |
| 1777398377 | 17.78° C | 98% | 1015.7 hPa | 2.54 mm | - | 0 W/m² | - |
| 1777396001 | 18.89° C | 96% | 1015.8 hPa | 0.25 mm | - | 0 W/m² | - |
| 1777394783 | 19.44° C | 96% | 1015.3 hPa | 0 mm | - | 0 W/m² | - |
| 1777391190 | 19.44° C | 99% | 1015.6 hPa | 0 mm | - | 0 W/m² | - |
| 1777389385 | 18.89° C | 99% | 1016.2 hPa | 0.51 mm | - | 0 W/m² | - |
| 1777387580 | 18.89° C | 99% | 1016.1 hPa | 5.59 mm | - | 0 W/m² | - |
| 1777383981 | 20° C | 96% | 1015.9 hPa | 0 mm | - | 0 W/m² | - |
| 1777383389 | 20.56° C | 94% | 1015 hPa | 0 mm | - | 0 W/m² | - |
| 1777372003 | 18.89° C | 91% | 1012.3 hPa | 0 mm | - | 0 W/m² | - |
| 1777361190 | 20.56° C | 83% | 1011.8 hPa | 0 mm | - | 0 W/m² | - |
| 1777358807 | 21.11° C | 82% | 1012.2 hPa | 0 mm | - | 0 W/m² | - |
| 1777355187 | 21.67° C | 81% | 1012.4 hPa | 0 mm | - | 0 W/m² | - |
| 1777354006 | 21.67° C | 81% | 1012.6 hPa | 0 mm | - | 0 W/m² | - |
| 1777353398 | 21.67° C | 81% | 1012.4 hPa | 0 mm | - | 0 W/m² | - |
* Rain latest hour (hover to see other rain measurements)
** Current wind speed in m/s (hover to see current wind gust speed)